Location: Karcze
(52.0945°N, 22.4786°E)
Time: 02:36:49
(UTC+00:00)

Vanguard 3 - All Passes

Search period start: 25 July 2021 00:00
Search period end: 04 August 2021 00:00
Orbit: 508 x 3261 km, 33.4° (Epoch: 24 July)

Date Brightness Start Highest point End Pass type
(mag) Time Alt. Az. Time Alt. Az. Time Alt. Az.
25 Jul - 15:56:54 10° S 16:07:34 19° SE 16:18:58 10° ESE daylight
25 Jul - 18:04:21 10° SW 18:20:15 35° SSE 18:35:50 10° ESE daylight
25 Jul - 20:16:47 10° WSW 20:34:14 41° S 20:48:47 10° ESE visible
25 Jul - 22:32:12 10° WSW 22:47:27 31° SSW 22:58:59 10° SSE visible
26 Jul - 00:52:29 10° WSW 00:58:24 13° SW 01:03:32 10° SSW visible
26 Jul - 14:50:07 10° SE 14:53:05 11° SE 14:56:08 10° ESE daylight
26 Jul - 16:50:45 10° SSW 17:04:39 29° SSE 17:19:31 10° E daylight
26 Jul - 19:01:14 10° SW 19:18:14 40° S 19:34:03 10° ESE visible
26 Jul - 21:15:11 10° WSW 21:32:09 38° SSW 21:45:46 10° SE visible
26 Jul - 23:32:14 10° W 23:44:23 22° SW 23:53:57 10° S visible
27 Jul - 15:38:40 10° S 15:49:34 21° SE 16:01:47 10° E daylight
27 Jul - 17:46:36 10° SW 18:02:15 37° SSE 18:18:31 10° ESE daylight
27 Jul - 19:58:57 10° WSW 20:16:20 41° S 20:31:40 10° ESE visible
27 Jul - 22:14:16 10° W 22:29:39 31° SSW 22:41:53 10° SSE visible
28 Jul - 00:35:18 10° WSW 00:40:43 12° SW 00:45:35 10° SSW visible
28 Jul - 14:30:01 10° SE 14:35:09 12° SE 14:40:42 10° ESE daylight
28 Jul - 16:33:01 10° SSW 16:46:39 30° SSE 17:02:03 10° E daylight
28 Jul - 18:43:34 10° SW 19:00:15 41° S 19:16:46 10° ESE visible
28 Jul - 20:57:21 10° WSW 21:14:15 37° SSW 21:28:36 10° SE visible
28 Jul - 23:14:27 10° W 23:26:36 21° SW 23:36:34 10° S visible
29 Jul - 15:20:48 10° S 15:31:38 22° SE 15:44:20 10° E daylight
29 Jul - 17:29:03 10° SW 17:44:16 38° SSE 18:01:02 10° ESE daylight
29 Jul - 19:41:18 10° WSW 19:58:21 41° S 20:14:22 10° SE visible
29 Jul - 21:56:28 10° W 22:11:46 30° SSW 22:24:35 10° SSE visible
30 Jul - 00:18:38 10° WSW 00:22:56 11° SW 00:26:56 10° SW visible
30 Jul - 14:11:17 10° SSE 14:17:17 13° SE 14:24:01 10° ESE daylight
30 Jul - 16:15:32 10° SSW 16:28:41 31° SSE 16:44:24 10° E daylight
30 Jul - 18:26:05 10° WSW 18:42:15 42° S 18:59:16 10° ESE daylight
30 Jul - 20:39:41 10° WSW 20:56:18 37° SSW 21:11:15 10° SE visible
30 Jul - 22:56:52 10° W 23:08:43 20° SW 23:18:54 10° S visible
31 Jul - 15:03:14 10° S 15:13:44 23° SE 15:26:41 10° E daylight
31 Jul - 17:11:43 10° SW 17:26:18 38° SSE 17:43:22 10° ESE daylight
31 Jul - 19:23:50 10° WSW 19:40:22 41° S 19:56:54 10° SE visible
31 Jul - 21:38:50 10° W 21:53:49 29° SSW 22:07:02 10° SSE visible
01 Aug - 00:03:47 10° WSW 00:05:04 10° SW 00:06:20 10° SW visible
01 Aug - 13:53:12 10° SSE 13:59:30 14° SE 14:06:50 10° ESE daylight
01 Aug - 15:58:16 10° SSW 16:10:47 32° SSE 16:26:35 10° E daylight
01 Aug - 18:08:47 10° WSW 18:24:17 41° S 18:41:37 10° ESE daylight
01 Aug - 20:22:11 10° WSW 20:38:17 35° SSW 20:53:41 10° SE visible
01 Aug - 22:39:30 10° W 22:50:46 19° SW 23:00:53 10° S visible
02 Aug - 14:45:54 10° S 14:55:57 24° SE 15:08:51 10° E daylight
02 Aug - 16:54:33 10° SW 17:08:24 39° SSE 17:25:32 10° ESE daylight
02 Aug - 19:06:31 10° WSW 19:22:22 40° S 19:39:13 10° SE visible
02 Aug - 21:21:24 10° W 21:35:48 27° SSW 21:49:15 10° SSE visible
03 Aug - 13:35:32 10° SSE 13:41:49 15° SE 13:49:22 10° ESE daylight
03 Aug - 15:41:11 10° SSW 15:53:00 33° SSE 16:08:38 10° ESE daylight
03 Aug - 17:51:40 10° WSW 18:06:21 41° S 18:23:48 10° ESE daylight
03 Aug - 20:04:52 10° WSW 20:20:17 34° SSW 20:35:53 10° SSE visible
03 Aug - 22:22:26 10° WSW 22:32:47 17° SW 22:42:29 10° SSW visible
